Showing default

EXPRESS MD2, 38745

Orbit data source: Space-Track

EXPRESS MD2, 38745 is a payload satellite owned by KosSvyaz (CIS) in LEO that was launched on Mon, 06 Aug 2012 UTC via a PROTON-M/BRIZ-M launch vehicle from the Tyuratam Missile And Space Complex (TTMTR). Payload-class satellites include a variety of spacecraft equipped with specific instruments for various scientific and technological missions. These include communications satellites like Starlink; space stations such as the ISS; scientific satellites like the Hubble; Earth observation satellites from companies like Planet Labs, Umbra, and HawkEye 360; GPS; miniature CubeSats for education and research; and military/defense satellites.

Loading next visibility...
Identifier
38745, 2012-044B
Orbit
LEO
Country
Flag of CISCIS
Related business
Manufacturer
Khrunichev
Mission
Partially operational Commercial Communications
Bus & Motor
KAZSAT, Unknown motor
Mass
1,140 kg wet, ~1,000 kg dry
Launch date (UTC)
2012-08-06 (14 years ago)
Launch vehicle
PROTON-M/BRIZ-M
Launch site
Tyuratam Missile And Space Complex (TTMTR)
Object type
Payload
Rocket body
Debris
Shape & HBR
Box + 2 Pan, 3.5 m
Radar Cross Section
10.694 m², Large (>1 m²)

Expand to show TLE details & history
Last TLE update: 3 days ago

TLE from 3 days ago
0 EXPRESS MD2
1 38745U 12044B   26170.93392465  .00032797  50140-5  57523-3 0  9993
2 38745  49.8254  55.2681 1567575 179.5007 180.7857 12.43652681561155
Epoch: 2026-06-19T22:24Z
TLE epoch observation values (Epoch: 2026-06-19T22:24:51.089Z)
Latitude
Longitude
170.89945°
Altitude
2,725.062 km
Speed
6.079 km/s
True Right ascension
03h 41m 04s
True Declination
0° 00' 00"
Sunlit
Object was in daylight at epoch
Visualization orbit readout
Latitude
Unknown
Longitude
Unknown
Altitude
Unknown
Speed
Unknown
Apparent Right ascension
Unknown
Apparent Declination
Unknown
Sunlit
N/A
Visualization observer readout
Local Sidereal Time
00:50:08
Azimuth
Unknown
Elevation
Unknown
Doppler factor
Unknown
Orbital elements
Apogee altitude
2,725.569 km
Perigee altitude
258.199 km
Semi-major axis
7,870.021 km
Eccentricity
0.15676
Inclination
49.8254°
RAAN
55.2681°
Arg. of periapsis
179.5007°
True anomaly
180.57993°
Mean anomaly
180.7857°
Eccentric anomaly
180.67923°
Mean motion
3.1087 °/min
Orbital period
115.8 mins
BSTAR
0.00057523
Loading maneuver chart data...
Computing Atmospheric mass density...

Documentation

Showing up to 5 results
|